User: anonymous   Login
Location: Fort Wayne
(41.1310°N, 85.1290°W)
Time: 04:22:22
(UTC-04:00)
Language:

SL-08 RB Rocket - Orbit

View from above orbital plane
View from above orbital plane
View from above satellite
View from above satellite

Ground track
Ground track

The orbit data is extracted from the following two-line orbital elements,

1 26387U 00033D   16208.19144355  .00000122  00000-0  29563-4 0  9995
2 26387  98.0149 274.0045 0025236 293.9828 124.5380 14.68171508860042
Epoch (UTC): 26 July 2016 04:35:40
Eccentricity: 0.0025236
inclination: 98.0149°
perigee height: 649 km
apogee height: 684 km
right ascension of ascending node: 274.0045°
argument of perigee: 293.9828°
revolutions per day: 14.68171508
mean anomaly at epoch: 124.5380°
orbit number at epoch: 86004

The dashed part of the orbit path shows where the satellite is in the earth's shadow,  

DLR